Theta_e
321 322 321 320 319 319 319 319 319 318 318 314 311 311 309 309 314 315 312 311 310 309 309 309 310 311 311 312 312 313 313 314 313 312 312 312 311 310 308 308 308 308 308 307 307 307 307 306 306 307 308 308 308 308 307 307 307 306 305 305 305 305 308 311 310 309 305 301 300 299 298 298 299 298 298 297 297 297 298 297 298 298 298 298 299
321 321 321 320 319 319 319 319 319 319 319 317 314 314 310 308 312 315 314 314 314 312 311 310 311 311 313 313 312 311 312 312 313 313 312 313 313 312 311 309 308 307 308 308 309 308 307 307 306 306 306 307 307 308 308 308 307 305 303 303 303 302 304 307 307 307 305 301 300 300 298 299 299 298 297 297 297 297 297 297 297 297 296 297 298
320 321 321 321 319 319 319 319 319 319 319 319 317 316 313 309 311 315 317 317 317 316 315 314 313 313 314 314 313 312 311 311 312 312 312 312 313 313 313 312 311 309 309 310 309 308 308 308 307 306 306 306 306 307 307 307 307 304 301 301 301 299 300 302 303 304 303 301 301 301 300 299 299 298 297 297 297 298 298 297 297 296 296 296 297
321 320 320 320 319 319 319 319 319 319 319 319 319 318 316 314 314 316 317 317 318 318 318 317 316 315 315 314 314 314 314 313 313 313 313 313 313 313 313 313 312 312 312 312 310 309 309 309 308 307 307 306 305 306 307 307 305 302 300 299 299 299 298 299 300 302 302 302 301 300 300 300 300 299 299 299 299 299 299 298 298 297 296 296 296
322 321 320 319 319 319 319 318 319 318 318 319 319 319 318 317 317 318 317 317 318 318 318 319 319 318 317 316 316 316 316 316 317 317 316 316 315 314 314 313 313 312 313 313 312 311 310 310 309 307 308 307 306 306 306 306 305 302 300 299 299 299 299 298 299 300 302 303 302 300 300 300 300 299 299 300 301 301 300 300 299 298 297 297 296
323 323 322 321 320 320 319 319 318 317 316 317 318 319 319 318 318 317 317 318 318 318 319 319 319 319 319 318 317 317 317 317 317 318 317 317 316 315 315 315 314 314 313 313 313 312 311 311 310 309 308 308 307 307 306 305 305 302 300 300 299 299 299 299 299 300 302 303 302 302 301 301 301 301 299 300 301 301 301 301 301 300 298 297 297
323 323 323 322 322 321 321 319 318 316 317 318 318 319 319 319 318 317 318 318 319 319 319 319 318 319 319 319 318 317 316 316 317 318 318 317 317 316 316 316 316 315 315 314 313 312 312 312 312 311 309 309 308 308 307 306 305 303 301 300 299 298 299 299 300 301 302 302 303 303 302 301 301 301 300 300 301 301 300 301 301 301 299 298 297
323 322 322 322 322 322 321 319 318 318 319 319 319 319 319 319 318 317 318 319 318 319 319 318 317 317 318 319 318 318 316 316 317 317 317 318 318 317 317 317 317 317 317 316 314 313 312 312 313 312 311 310 309 309 308 307 306 304 301 300 299 299 299 300 301 302 303 304 303 303 303 302 302 301 301 301 302 302 300 300 301 301 299 299 298
322 322 322 321 321 321 320 318 318 319 319 319 319 319 319 319 319 318 318 318 318 318 318 317 317 317 318 318 317 316 316 316 317 317 317 318 319 318 318 317 318 317 317 317 316 315 315 314 314 313 313 313 312 310 309 309 307 305 303 301 301 300 300 301 302 303 304 305 305 304 304 304 303 302 302 302 301 301 300 299 300 300 299 299 299
321 321 321 321 321 321 320 320 319 319 319 319 319 319 319 319 318 318 318 317 318 319 318 318 318 317 317 317 316 315 315 316 318 317 318 319 319 319 318 318 318 317 317 317 317 317 317 316 316 314 314 314 313 310 310 310 308 307 305 303 302 301 301 302 302 303 304 305 305 304 305 305 303 302 302 301 300 300 300 299 300 299 299 299 299
320 320 320 320 320 320 320 320 319 319 319 319 319 319 319 319 319 318 318 318 318 319 318 318 318 317 317 317 317 316 317 317 318 318 319 320 319 319 319 318 318 318 318 318 318 318 317 316 316 315 314 313 311 310 309 309 308 307 306 303 302 303 302 302 302 302 303 304 304 304 304 304 303 301 301 301 300 300 299 299 299 298 298 298 298
320 320 320 320 320 319 319 318 318 318 318 319 319 319 319 319 319 319 319 319 319 319 318 318 318 318 318 318 318 318 318 318 319 319 320 320 319 319 319 319 319 319 319 319 318 318 318 317 316 316 315 313 312 310 309 308 307 306 304 303 303 303 303 303 303 302 301 303 304 304 303 303 303 301 301 300 299 299 299 299 298 297 297 297 297
315 316 317 318 319 319 319 319 318 317 318 318 319 318 318 318 318 319 319 319 319 319 319 319 319 319 318 318 318 318 318 319 319 319 320 320 320 319 318 318 318 318 318 318 318 318 318 317 317 317 316 314 313 311 309 308 306 304 303 303 303 304 304 304 304 302 301 301 302 303 302 302 302 301 299 298 297 298 298 298 297 297 296 296 296
308 308 309 312 314 314 314 315 316 316 317 319 319 319 318 318 317 317 317 318 318 317 316 316 317 318 318 318 318 318 318 319 319 319 319 319 317 315 314 313 312 313 314 315 316 317 317 317 316 316 316 315 314 311 309 308 305 303 303 304 304 304 304 303 302 301 301 300 301 302 301 300 300 299 297 296 296 296 296 296 296 296 296 295 295
306 305 306 307 307 307 307 308 309 310 313 317 318 318 316 314 314 314 313 314 314 313 313 314 315 316 316 316 316 317 318 319 319 319 318 316 314 313 312 311 310 310 311 313 314 315 315 316 317 316 316 315 313 310 308 307 305 303 304 305 304 303 302 301 301 300 300 300 300 300 299 298 298 297 295 294 294 294 294 294 294 294 295 295 295
305 305 305 306 306 306 305 306 306 307 308 310 312 313 312 311 310 310 309 310 310 310 310 310 310 311 311 312 313 314 316 317 318 318 317 315 314 313 313 312 311 310 310 312 313 314 314 315 315 316 315 313 311 309 308 306 304 303 304 304 303 302 301 301 300 299 299 299 299 298 297 296 296 295 294 293 293 293 293 294 294 295 295 296 296
305 305 305 305 305 305 306 306 306 306 306 307 308 309 310 309 308 307 307 307 307 307 306 306 306 305 305 306 306 308 311 313 315 317 317 316 315 314 313 313 311 310 310 311 312 312 312 312 312 312 311 310 309 308 306 304 303 303 304 303 302 301 300 300 299 299 298 298 297 296 295 294 294 293 293 292 292 292 293 294 295 295 295 296 296
303 304 305 305 305 305 305 305 306 306 307 306 307 308 308 307 307 306 306 305 304 304 304 304 304 303 303 303 302 302 304 306 309 312 315 316 316 315 314 313 312 310 310 311 311 310 309 309 308 308 308 308 306 304 302 302 303 304 303 302 301 300 300 299 298 297 296 296 295 294 293 293 293 293 292 292 292 292 292 294 294 294 294 295 295
301 302 304 305 305 305 305 305 305 306 306 306 306 306 306 306 306 305 304 304 303 303 303 304 305 304 304 303 302 302 302 304 305 308 311 314 316 315 314 313 311 310 310 309 309 308 307 307 306 306 306 305 303 302 302 302 303 303 302 301 300 299 298 297 296 295 294 294 294 293 293 293 292 292 292 292 292 291 291 293 293 293 294 294 294
299 300 301 302 303 304 305 305 305 306 306 306 305 305 305 305 305 305 304 304 305 304 304 305 306 305 305 304 303 303 303 304 306 308 310 313 314 314 313 312 310 310 309 307 307 306 305 305 304 303 303 303 302 302 302 302 301 301 300 299 298 297 296 295 294 293 294 294 294 293 293 293 292 292 292 292 292 291 291 292 292 292 292 293 293
299 299 300 300 301 302 302 303 304 305 306 306 306 306 305 305 305 305 305 305 305 305 305 305 306 306 305 304 304 303 303 303 305 308 310 312 312 312 312 311 310 309 308 305 304 303 302 302 301 301 301 301 301 301 300 300 299 298 297 296 296 295 294 294 293 293 293 293 293 293 293 293 293 293 292 292 292 292 292 291 292 292 292 292 292
299 299 299 300 300 300 301 301 302 303 304 305 306 306 306 306 306 305 305 306 306 306 306 306 306 307 306 305 304 304 304 304 305 308 310 311 311 311 310 309 309 309 307 305 303 302 301 301 300 299 299 299 299 299 298 298 297 296 295 294 294 293 293 293 293 293 293 293 293 293 293 293 293 293 292 292 292 291 291 291 291 291 291 291 291
298 298 298 299 299 299 300 300 301 301 303 304 305 306 306 306 306 306 306 306 306 306 306 306 307 307 306 305 305 305 304 304 306 308 310 311 310 310 309 308 308 307 306 305 303 302 301 300 298 298 298 298 298 297 296 295 295 294 294 293 293 293 293 293 292 293 293 293 293 293 293 293 293 292 292 292 291 291 290 290 290 290 290 290 290
298 298 298 298 299 299 299 300 300 301 301 302 303 304 305 306 306 306 306 305 305 305 306 307 307 307 306 305 305 305 305 305 306 308 309 309 309 309 308 307 306 305 305 304 302 301 299 298 297 297 297 296 296 295 295 294 294 293 293 293 292 292 292 292 292 292 292 292 292 293 292 292 292 291 291 291 290 290 290 289 289 289 290 290 290
297 298 298 298 298 298 298 299 300 300 301 301 302 303 304 305 305 306 305 305 305 305 306 307 307 306 306 306 305 306 306 306 306 307 307 307 308 307 306 305 304 304 303 302 300 299 298 297 296 295 295 295 295 294 293 293 293 292 292 292 291 291 291 292 292 292 292 292 292 292 291 291 291 290 290 289 289 289 289 289 289 289 289 289 289
296 297 298 298 298 298 298 298 299 299 300 301 301 302 303 304 304 305 305 305 305 306 306 306 306 305 305 305 305 306 306 306 306 306 305 305 305 304 303 303 302 301 300 299 298 297 296 295 295 294 294 294 293 293 293 292 291 291 291 290 291 291 291 291 291 291 291 291 291 291 291 290 290 289 289 288 288 289 289 288 288 288 288 288 288
295 296 297 298 298 299 299 298 298 298 299 300 301 301 302 303 304 304 304 305 305 306 305 305 305 305 305 305 305 305 306 306 305 305 303 303 302 302 301 301 300 299 299 297 296 295 295 294 294 294 293 293 292 292 292 291 291 291 290 291 290 290 290 290 290 290 290 290 290 290 290 289 289 288 288 288 288 288 288 287 287 287 287 287 287
294 295 296 297 298 298 299 299 298 298 299 299 300 301 301 302 303 304 305 304 304 305 304 304 304 305 305 305 305 305 305 305 305 304 303 302 301 300 299 299 298 298 297 296 295 294 294 294 293 293 292 292 292 292 291 291 290 290 290 290 290 290 289 289 289 289 290 290 290 290 289 289 288 288 288 288 288 288 288 287 287 287 287 287 288
293 294 295 296 297 297 298 298 299 299 299 299 300 300 301 301 302 303 304 304 304 303 303 304 304 304 304 304 304 304 304 304 305 304 303 302 301 300 299 298 297 297 297 296 295 294 293 293 292 292 292 292 292 292 291 291 291 290 290 289 289 289 289 289 289 289 289 289 289 289 289 289 289 289 288 288 288 288 288 288 288 288 288 288 288
292 293 294 295 296 297 297 298 299 299 299 299 300 300 300 301 301 302 302 303 303 303 304 303 303 303 304 303 303 303 303 304 304 304 302 300 300 299 299 298 297 296 296 296 295 294 293 293 293 292 292 292 292 292 291 291 291 290 289 289 289 288 288 288 289 288 288 288 289 289 289 289 289 289 289 289 289 288 288 288 288 288 288 288 288
292 292 293 294 295 295 297 298 298 299 299 300 300 300 300 300 300 300 301 301 301 302 303 303 303 303 303 303 302 302 303 304 304 303 300 298 298 297 297 297 296 296 296 295 294 293 293 293 292 292 292 292 291 291 291 290 290 290 289 289 289 288 288 288 287 287 288 288 289 289 289 289 289 289 289 288 288 288 288 288 288 288 289 289 289
292 292 293 293 293 294 295 296 297 298 298 299 299 300 301 300 300 300 300 301 301 301 302 302 303 303 303 302 302 303 304 303 303 301 299 297 297 296 296 296 296 295 294 294 293 293 293 293 292 292 292 291 291 290 290 290 289 289 289 289 289 289 288 287 286 286 288 289 289 289 289 289 289 289 288 288 288 288 288 288 289 289 289 289 289
291 291 292 293 293 293 293 295 296 297 298 298 298 299 300 301 301 301 300 301 301 301 301 301 301 301 302 303 303 303 304 303 302 300 298 297 296 295 295 295 294 293 293 293 293 293 293 292 292 292 291 291 291 290 290 289 289 289 289 289 289 289 288 287 286 287 288 288 289 289 289 289 289 289 288 288 288 288 288 289 289 289 289 289 289
291 291 291 292 293 293 293 294 295 296 297 298 298 299 299 299 301 301 300 301 301 301 301 302 302 301 302 303 303 303 303 303 300 298 296 295 295 295 294 293 292 292 292 292 293 292 292 292 292 292 291 291 290 290 289 289 289 289 289 289 289 288 287 286 287 288 288 289 289 290 289 289 289 289 289 289 289 289 289 289 289 289 289 289 289
292 292 292 292 292 292 293 293 294 295 296 297 298 298 298 298 298 299 299 300 300 300 301 302 302 302 303 303 302 302 302 302 299 296 294 295 295 294 293 292 292 292 292 293 292 292 292 292 292 291 291 290 290 289 289 289 289 289 289 289 289 287 286 286 287 288 288 289 290 290 289 289 289 289 289 289 288 288 289 289 289 288 288 288 288
292 292 292 292 292 292 292 293 293 294 295 296 297 298 297 297 298 297 297 298 299 299 299 300 301 302 302 302 301 301 301 301 300 296 294 295 294 293 292 292 293 293 292 292 292 292 292 292 291 291 291 290 290 289 289 289 289 289 289 289 287 286 286 286 287 288 289 289 289 289 289 289 289 288 288 288 288 288 288 288 288 288 288 288 288
293 293 293 292 292 292 292 293 293 293 294 295 296 297 297 297 297 297 297 298 299 299 299 299 299 300 299 298 298 298 298 298 297 295 294 294 293 292 292 293 292 292 292 292 292 292 291 291 291 291 290 290 290 290 289 289 289 289 288 287 286 285 285 286 288 289 290 289 289 289 289 289 288 288 288 288 288 288 288 288 288 288 288 288 288
293 293 293 293 292 292 292 292 293 293 293 293 295 296 296 296 296 297 297 297 298 298 299 298 297 296 295 294 294 295 295 294 293 293 292 292 292 291 292 292 292 292 292 292 292 291 291 291 290 290 290 290 290 290 289 289 289 288 287 286 285 285 285 287 288 290 289 289 289 289 289 288 288 288 288 288 288 288 288 288 288 288 288 288 288
293 293 293 293 292 292 292 292 293 293 293 293 294 295 295 295 296 296 297 297 297 297 297 297 296 295 294 292 291 292 292 292 292 291 291 291 291 292 292 292 292 292 292 291 291 291 291 290 290 290 290 289 289 289 289 289 288 287 286 285 285 285 286 287 289 289 289 288 289 289 288 288 288 288 288 288 287 287 287 288 288 288 288 288 288
294 293 293 292 292 292 292 292 292 293 293 293 294 295 295 295 295 296 296 296 296 296 296 296 295 294 294 292 291 291 292 292 291 291 291 291 292 292 292 292 292 292 291 291 291 291 291 290 290 289 289 289 289 289 288 288 287 286 286 285 285 285 287 288 289 289 288 288 288 288 288 287 287 287 287 287 287 287 287 287 288 288 288 288 288
293 293 292 292 292 292 291 292 292 292 293 293 294 294 295 295 295 295 295 295 295 294 294 294 293 292 291 291 290 291 292 292 291 291 291 292 292 292 292 292 292 291 291 291 290 290 290 290 289 289 289 289 289 288 287 286 286 286 285 284 284 286 287 288 289 288 288 287 287 287 287 287 287 287 287 287 287 287 287 288 288 288 288 288 288
293 292 292 291 291 291 291 291 291 292 292 292 293 294 294 295 294 294 294 294 293 292 292 291 291 291 290 290 290 290 291 291 291 291 291 292 292 292 292 291 291 291 291 290 290 290 289 289 289 289 289 289 288 287 286 286 286 285 285 284 285 286 287 288 288 287 287 288 288 287 287 286 286 286 287 287 287 287 288 288 288 288 288 288 289
292 292 292 291 291 291 291 291 291 291 292 292 293 293 294 294 293 293 292 292 292 291 291 290 289 289 289 289 290 291 292 292 292 291 291 291 292 292 291 291 291 291 290 290 290 289 289 289 289 289 289 288 288 286 286 286 286 285 284 285 285 286 287 288 288 288 288 288 288 288 287 286 286 286 287 288 288 288 288 288 288 288 288 289 289
291 291 291 291 290 290 290 290 291 291 291 292 292 292 293 293 292 292 292 291 291 291 290 289 289 289 289 289 290 291 291 291 292 291 291 291 291 291 291 291 291 291 290 290 289 289 288 288 288 289 289 288 287 286 286 287 286 285 284 284 285 286 287 288 288 289 289 288 288 288 287 286 286 287 287 288 288 288 288 288 288 288 288 289 289
291 291 291 291 290 290 290 290 290 291 291 291 292 291 292 292 292 291 291 290 290 290 289 289 289 289 290 290 290 291 291 291 291 292 292 291 291 291 291 291 291 290 289 289 288 288 288 288 288 289 288 287 286 286 286 287 286 286 285 285 285 286 287 288 288 289 289 289 288 288 287 287 286 287 287 288 288 288 288 288 288 288 289 289 289
291 291 291 291 290 290 290 290 290 291 291 291 291 291 291 291 291 290 290 290 290 289 289 289 290 290 290 290 290 291 291 292 292 292 292 291 291 291 290 290 290 289 289 288 288 288 288 288 288 288 288 286 285 286 287 287 286 286 286 285 285 286 287 288 288 289 289 289 288 288 288 287 286 287 288 288 288 288 288 288 289 289 289 289 289
291 291 291 291 291 291 290 290 290 290 290 290 290 291 291 291 290 290 290 289 289 289 289 290 290 291 291 291 291 291 291 291 291 291 291 291 291 290 290 290 289 289 288 288 288 288 288 288 288 288 287 286 285 286 286 286 286 286 286 286 285 285 286 288 288 289 290 289 289 288 288 287 287 287 288 288 288 289 288 289 289 289 289 289 289
291 291 291 291 291 291 291 290 290 290 290 289 289 290 290 290 289 289 289 289 289 290 290 290 291 291 291 291 291 291 291 291 291 290 290 290 290 290 290 289 289 288 288 288 288 288 288 288 288 288 287 286 285 286 286 286 286 286 286 286 285 285 286 287 288 289 289 289 289 289 289 288 287 287 288 288 288 288 289 289 289 289 289 289 289
291 291 291 290 290 290 290 290 290 290 290 290 289 289 289 290 290 290 290 290 290 290 290 290 290 290 290 290 290 290 290 290 290 290 290 289 289 289 289 288 288 288 288 288 288 288 288 288 288 288 287 286 286 286 286 286 286 286 286 286 285 285 285 287 288 289 289 290 289 289 289 288 287 288 288 289 288 288 288 288 288 288 289 289 290
292 291 290 290 290 290 290 290 290 290 290 290 289 289 289 290 290 290 290 290 290 290 290 290 290 289 289 289 289 289 289 289 289 289 289 289 289 288 288 288 288 288 288 287 287 287 288 288 288 288 287 286 286 286 286 286 286 286 286 286 285 285 285 286 288 289 289 289 289 289 288 288 288 288 288 289 289 289 288 288 288 288 289 289 290
292 291 290 289 289 289 289 289 289 289 289 289 289 289 289 289 289 289 289 289 289 289 289 289 289 289 288 288 289 289 289 289 289 288 288 288 288 287 287 287 287 287 287 287 287 287 287 288 288 288 287 286 286 286 286 286 287 287 286 286 286 286 285 286 287 289 289 289 289 289 289 288 289 289 288 289 289 288 288 288 288 288 289 289 290
Wind_Speed
19 19 17 15 15 16 17 17 19 18 16 16 15 15 14 11 10 10 10 9 8 8 6 6 5 4 3 2 2 2 1 2 2 3 3 4 3 3 3 2 2 2 3 5 5 5 5 5 5 5 5 6 8 8 8 8 9 9 9 9 10 9 7 7 9 8 6 5 5 6 8 9 9 11 11 11 11 10 9 9 9 9 10 9 9
16 16 14 12 13 15 16 17 19 19 19 17 15 14 14 13 11 10 10 9 8 8 7 6 5 4 3 1 1 1 1 1 1 0 1 2 3 3 3 2 1 1 1 3 3 3 3 3 4 4 3 4 5 6 6 6 7 8 9 9 9 10 8 7 8 8 7 5 5 5 8 9 8 10 11 11 11 11 10 10 11 11 11 11 10
14 13 11 11 12 14 16 17 18 19 19 18 15 15 15 15 12 11 11 10 8 8 6 5 4 4 3 2 1 1 2 2 2 2 2 3 3 4 4 4 5 5 4 4 4 3 2 2 2 3 3 3 4 4 4 5 6 7 9 10 10 10 10 8 7 7 7 6 4 4 5 8 8 9 10 11 12 12 11 11 12 12 13 13 11
12 11 10 12 12 13 14 15 16 17 17 16 15 15 16 15 13 12 12 11 10 9 7 5 5 5 5 4 3 3 2 3 3 3 4 4 4 5 6 7 8 8 8 7 6 5 4 4 4 3 3 3 4 4 4 4 5 6 8 9 10 10 10 9 7 7 7 6 5 4 4 5 6 8 9 9 10 11 12 12 13 14 16 16 15
9 9 8 9 12 13 13 14 14 14 14 14 14 15 17 16 14 13 13 12 13 11 9 7 5 6 7 7 5 5 4 4 5 5 5 6 6 8 9 10 9 10 11 12 11 9 7 7 6 5 5 5 5 5 4 4 5 5 7 7 8 9 9 9 8 7 6 6 5 5 5 4 4 7 9 8 7 8 10 11 12 16 19 20 19
7 8 7 7 9 12 13 14 14 14 13 13 12 15 17 16 15 15 14 13 13 13 12 10 8 9 10 9 8 8 7 6 7 8 8 8 8 9 11 12 10 9 12 15 16 15 12 9 9 8 8 7 6 6 6 5 4 4 5 6 7 8 8 8 8 7 7 6 5 4 4 4 4 6 9 11 8 8 10 9 9 13 18 21 20
7 7 8 8 9 11 12 13 13 13 13 13 14 16 17 18 18 17 15 13 13 14 14 13 13 13 12 11 11 11 10 10 11 10 10 10 10 11 13 14 13 13 14 15 17 18 16 12 10 10 10 10 8 7 7 6 5 5 5 5 6 7 8 8 7 7 6 5 4 3 3 4 5 5 8 11 8 8 12 11 9 11 16 20 18
6 6 6 7 8 10 11 10 10 10 11 12 14 16 18 19 20 18 16 14 13 15 17 16 14 13 11 10 11 11 11 12 14 12 11 11 11 12 13 13 14 15 16 16 18 19 18 15 13 11 10 11 11 10 8 7 6 6 5 5 5 5 6 7 6 5 4 3 3 2 2 2 4 4 6 8 7 7 11 13 12 12 15 17 13
5 5 5 6 6 7 8 9 10 10 10 11 13 16 18 19 20 19 16 14 13 14 16 16 14 12 11 11 13 14 14 14 13 12 11 10 10 10 10 11 13 13 14 16 17 17 17 16 15 13 11 12 14 13 12 10 8 7 5 4 4 5 5 5 4 3 2 2 2 2 1 2 4 5 5 6 7 8 10 11 11 12 14 14 10
4 6 6 6 7 6 7 9 10 11 11 12 12 15 17 18 18 17 16 13 12 13 14 14 13 13 13 15 17 18 16 13 12 11 11 10 10 10 10 11 11 11 13 14 14 13 13 13 14 14 14 15 15 16 15 13 10 8 6 5 6 5 5 4 3 2 1 1 2 2 3 3 3 4 4 5 6 7 8 10 11 12 14 14 9
3 4 5 7 8 7 7 8 8 9 11 11 12 13 14 15 15 15 15 13 13 14 15 14 13 13 14 14 14 14 13 12 11 11 11 10 10 10 10 9 9 10 11 12 12 11 10 10 10 11 13 15 16 16 16 14 12 10 8 8 7 5 4 3 2 1 1 1 1 2 3 3 3 3 3 4 5 7 8 9 10 11 12 13 11
1 2 3 5 6 6 7 6 7 8 10 10 11 11 12 13 14 14 14 14 15 16 16 14 12 11 12 12 12 12 11 11 11 10 9 8 7 7 7 8 8 9 10 10 11 11 10 10 10 9 10 12 13 12 14 15 13 11 11 10 8 5 4 1 1 2 2 2 2 2 3 3 3 2 3 5 6 8 8 8 8 10 10 11 11
4 2 2 2 3 4 5 5 5 5 8 10 10 10 10 11 13 15 15 14 15 15 13 11 10 9 10 10 10 9 9 8 8 8 7 6 5 4 4 4 5 6 8 9 10 10 10 9 9 10 10 10 10 9 13 17 15 13 13 11 8 5 4 3 2 3 4 4 3 3 3 4 4 3 6 9 9 8 9 9 9 9 9 10 12
9 7 5 3 2 2 3 5 4 3 4 7 8 9 8 9 12 13 13 12 12 11 10 9 9 9 8 8 8 7 7 7 8 9 8 7 6 4 2 2 3 5 7 8 9 10 9 8 7 8 9 9 8 8 12 17 17 15 13 10 7 6 5 4 4 5 5 5 4 4 5 6 5 6 10 12 11 9 9 10 10 10 11 13 15
9 8 7 5 3 2 2 3 3 3 3 4 6 7 7 7 9 10 8 9 9 9 8 8 8 8 7 7 7 7 8 9 9 9 9 9 7 6 4 2 2 4 6 7 8 9 9 9 8 7 7 7 6 6 12 18 18 16 13 9 7 6 5 5 6 6 6 6 6 6 7 8 7 8 11 12 11 11 11 13 13 13 13 14 14
10 9 7 4 3 2 2 2 2 2 2 2 4 7 7 7 7 8 9 9 9 10 9 9 8 8 7 6 6 6 6 7 9 9 10 10 9 8 6 4 3 2 3 4 5 6 6 6 6 5 5 5 4 6 12 17 18 15 11 9 8 7 6 6 6 6 6 6 7 7 8 8 9 9 10 11 11 11 11 12 12 11 12 13 13
9 9 6 4 3 3 1 1 0 1 1 2 4 6 8 9 10 11 11 10 9 8 8 8 8 8 7 6 5 4 4 6 7 8 10 10 10 9 7 6 4 2 1 2 3 4 3 2 2 2 2 3 3 7 13 16 16 13 10 8 7 6 5 6 6 6 6 7 8 8 8 8 9 10 10 11 11 10 9 10 10 11 12 13 13
10 8 6 4 3 3 2 2 3 5 6 6 7 9 11 12 12 12 11 10 10 9 9 10 9 8 7 6 5 4 4 5 6 7 9 9 9 9 8 6 5 3 2 2 3 4 4 4 3 2 1 0 3 8 13 14 12 9 8 8 7 6 6 6 6 6 6 7 7 7 8 8 9 10 10 10 11 10 10 10 11 12 13 13 13
12 10 7 7 6 4 4 4 3 6 9 10 11 12 13 14 13 12 12 12 11 11 11 10 8 7 7 6 6 5 4 4 5 6 7 8 9 9 8 7 6 5 5 5 5 5 4 4 4 4 4 3 6 10 11 9 7 6 5 6 6 7 6 5 4 4 5 5 5 6 7 8 9 10 11 12 13 13 12 11 12 12 13 14 14
13 12 10 10 11 11 11 10 8 7 7 9 11 12 13 14 14 14 14 13 12 12 11 9 7 6 5 5 5 5 5 3 2 3 5 6 7 8 8 8 7 7 8 7 8 8 7 7 7 6 6 7 8 9 8 6 5 4 3 4 5 5 5 4 4 4 4 4 6 7 7 8 10 10 11 11 12 12 11 11 11 12 13 14 14
14 14 13 12 12 13 14 15 15 14 11 10 10 11 12 13 14 15 16 15 13 13 12 10 8 6 5 4 4 4 5 4 2 0 2 4 5 6 7 7 7 8 9 9 9 10 10 10 10 8 8 8 8 6 5 4 3 3 3 4 4 4 3 3 4 5 5 5 7 7 8 9 9 9 9 10 10 10 10 11 11 12 13 14 15
17 16 16 15 14 14 14 15 15 16 16 15 15 14 13 12 13 15 16 15 15 14 13 12 9 7 5 3 2 2 2 2 2 0 1 3 4 6 6 6 6 7 9 10 11 11 11 11 10 9 7 6 6 4 3 2 2 2 3 3 3 3 3 2 3 4 5 6 7 8 9 9 9 9 9 10 10 10 11 12 12 13 14 15 16
17 18 18 17 16 15 15 15 14 14 16 17 19 20 20 18 17 17 17 16 16 15 14 13 11 8 6 4 3 2 1 2 3 2 3 3 4 6 7 6 6 7 9 11 12 12 12 11 10 8 6 5 3 2 1 1 1 1 1 1 2 3 3 3 4 5 6 7 8 9 9 10 10 11 11 11 11 12 13 15 15 15 16 17 17
17 18 19 19 19 17 16 15 15 14 15 16 19 21 23 24 24 24 23 21 19 17 16 14 12 10 9 7 7 7 6 5 5 5 4 4 5 7 8 8 8 9 10 12 13 13 13 12 10 8 6 4 3 2 2 1 1 1 1 2 4 5 4 4 5 7 7 8 8 9 10 10 11 11 12 13 14 15 16 16 16 16 16 17 17
19 19 19 19 20 20 19 18 16 15 15 16 18 20 22 24 26 27 27 25 23 21 20 19 16 13 12 11 10 9 8 7 8 8 7 6 7 7 8 9 9 10 11 12 13 12 12 11 9 7 5 4 3 3 3 3 3 2 3 4 5 5 5 6 6 7 8 8 9 10 10 11 11 13 14 15 15 15 15 15 15 14 14 15 15
20 21 21 20 21 21 21 20 19 17 16 16 18 20 23 24 25 27 27 25 24 23 22 20 18 15 14 14 13 12 11 10 10 10 9 9 9 9 10 10 11 11 12 12 12 11 10 8 7 7 6 5 5 4 4 3 3 4 5 6 5 5 5 6 6 7 8 8 9 10 11 12 13 13 13 13 13 14 14 14 14 13 13 13 14
22 21 20 20 20 20 19 20 21 20 18 17 16 18 22 24 25 28 29 27 24 24 23 21 20 19 18 18 17 15 14 13 12 12 12 12 12 13 13 13 14 13 13 14 13 11 10 9 8 7 6 6 5 4 4 3 3 4 4 5 5 5 6 7 7 7 7 8 10 12 13 13 13 12 12 12 13 13 12 12 13 13 13 13 15
23 22 21 21 21 21 19 19 19 19 20 18 16 16 19 22 24 28 31 31 29 27 25 25 24 23 22 21 19 16 15 15 16 15 15 14 15 16 17 17 16 15 15 14 14 12 11 10 9 8 7 6 5 5 4 3 3 4 4 5 5 6 7 8 8 7 6 8 10 12 12 12 12 12 12 13 13 13 12 12 13 13 14 14 15
22 23 23 21 22 23 22 20 18 17 18 19 17 16 17 20 24 27 28 29 30 30 28 27 26 24 22 20 18 17 18 18 18 17 16 14 15 16 17 17 16 15 14 13 13 14 13 11 10 8 6 5 5 4 3 3 3 3 5 6 5 5 7 8 7 7 8 9 10 12 12 12 13 13 13 13 14 14 13 13 13 14 14 14 15
20 20 20 20 21 21 21 19 18 16 16 17 18 16 15 16 20 24 26 26 27 28 27 27 26 24 22 19 18 17 15 15 17 18 16 15 14 13 14 15 15 14 14 12 12 13 13 10 8 7 5 4 4 3 3 3 3 3 5 6 6 6 8 8 8 9 10 10 10 11 12 12 13 13 14 14 15 14 14 14 14 14 14 15 16
19 19 18 19 20 20 20 18 17 15 14 15 16 16 15 14 14 17 21 23 23 22 23 24 24 23 22 20 18 16 13 12 16 19 18 17 16 14 14 15 14 14 14 14 13 13 11 9 7 6 4 4 3 3 3 3 3 4 5 6 6 7 8 8 9 10 11 10 10 11 12 12 13 13 14 14 15 15 14 14 14 14 15 15 16
19 19 19 19 19 19 19 19 17 15 14 14 14 14 13 12 12 12 14 16 17 17 17 18 17 17 18 18 16 16 15 15 18 20 20 19 18 16 16 15 14 15 14 13 13 12 9 8 7 6 4 4 3 3 3 3 3 4 5 6 7 8 9 10 12 12 11 10 10 11 12 12 12 13 13 13 14 15 15 14 14 14 14 15 16
20 20 20 20 19 18 18 18 17 16 15 14 14 13 12 11 11 10 11 13 16 17 18 18 17 16 16 16 15 15 17 18 19 22 22 21 20 18 17 16 15 15 14 11 11 11 9 7 7 6 4 4 3 3 3 3 3 4 6 7 8 9 11 12 13 12 10 10 11 11 12 12 13 13 14 13 14 15 15 15 15 14 14 15 16
21 21 21 20 20 19 18 18 18 17 15 14 14 14 14 13 12 11 9 9 11 14 16 19 20 19 19 18 15 14 16 18 21 24 24 23 21 20 19 19 18 16 12 10 10 10 8 7 7 6 4 4 3 3 2 2 3 5 6 8 9 11 12 12 11 11 10 11 11 12 12 13 13 13 14 14 14 14 15 15 15 14 15 15 16
23 22 23 23 23 21 20 19 18 17 16 16 15 14 14 14 15 16 15 11 9 10 13 15 17 18 19 19 17 16 17 19 21 23 23 23 22 22 22 21 18 15 12 9 9 9 8 7 7 6 5 4 4 2 2 2 4 5 7 9 10 12 13 12 11 11 12 12 12 12 13 13 13 13 14 15 15 14 15 14 14 14 15 16 16
25 24 23 24 24 22 21 20 19 18 16 15 15 16 15 13 12 15 16 14 13 13 14 14 16 17 18 18 17 17 18 20 21 23 24 24 24 24 23 20 16 14 12 10 9 9 7 6 6 6 5 4 3 2 1 3 5 6 8 10 11 12 12 12 11 12 14 14 12 12 13 12 13 14 14 15 14 14 14 14 14 15 16 16 17
24 24 24 24 23 22 21 20 18 18 16 14 14 16 16 13 11 10 11 12 14 14 14 15 16 16 16 17 18 19 20 22 23 24 24 23 23 23 22 21 18 16 13 11 10 10 8 6 6 5 5 4 3 1 2 4 5 7 9 12 13 13 14 13 14 16 17 14 13 13 12 12 13 14 14 14 14 14 14 14 15 16 16 17 17
21 21 22 24 24 22 21 19 17 15 15 15 14 15 15 13 11 9 8 10 13 14 14 15 15 14 15 17 19 23 26 26 26 26 24 23 23 22 21 21 20 17 13 12 11 9 8 7 6 5 5 4 2 1 3 4 6 8 11 13 13 13 14 14 15 17 16 13 13 13 13 13 13 14 14 14 14 14 14 15 16 16 17 17 16
18 16 15 19 22 22 20 19 15 13 13 15 15 14 14 13 11 9 9 10 12 14 15 14 14 16 18 18 20 27 31 30 28 28 27 26 24 21 20 19 18 15 13 12 11 9 8 7 6 6 5 3 1 2 3 6 7 10 13 14 12 13 13 14 15 16 15 12 12 14 13 14 14 14 14 13 13 14 15 16 16 16 17 17 17
16 13 9 9 16 19 18 18 15 11 11 14 15 14 13 13 12 11 10 10 11 11 12 12 12 14 19 23 25 28 30 31 29 29 29 26 23 20 19 18 16 14 13 13 11 8 7 7 6 6 4 2 1 3 5 7 9 10 12 13 13 13 15 15 16 16 13 11 12 13 13 13 14 13 13 14 14 14 15 15 16 16 16 16 17
12 11 7 2 9 12 14 15 13 10 10 13 14 13 12 12 12 12 11 10 9 9 10 10 10 11 18 24 23 21 24 30 32 30 28 26 22 20 19 17 15 14 13 12 10 8 7 7 7 5 3 1 2 4 6 8 10 12 13 14 14 15 15 15 16 15 13 12 12 14 14 14 14 14 14 15 16 15 14 14 15 15 15 15 16
11 9 7 2 2 5 7 10 10 9 11 13 13 12 12 13 13 12 11 10 10 11 11 11 12 13 17 20 19 18 23 29 29 27 25 23 21 19 18 16 15 14 13 11 9 8 7 8 7 4 2 0 3 5 7 9 12 13 14 15 15 16 16 15 15 14 14 14 15 17 17 16 15 14 14 15 16 15 14 14 14 14 15 15 15
11 10 9 8 5 2 3 5 5 6 8 10 12 13 13 12 12 12 12 12 13 13 14 15 16 18 19 20 21 23 25 26 24 23 23 21 19 18 18 17 15 13 11 9 8 8 8 7 6 4 1 1 4 6 7 10 13 14 14 15 15 16 15 15 14 14 15 16 18 19 19 17 15 14 14 15 15 14 14 14 15 15 15 15 15
12 11 11 12 11 9 8 7 7 7 7 9 10 11 11 10 10 11 12 13 14 15 16 19 22 23 22 20 20 22 22 22 22 22 21 20 20 20 18 16 14 12 10 8 7 7 7 7 5 2 1 3 5 6 8 10 13 14 14 14 15 15 15 15 16 16 17 18 19 20 19 17 15 14 14 14 15 14 14 14 15 16 15 14 14
13 13 13 13 13 13 13 12 12 12 12 11 12 11 11 11 12 13 14 15 16 17 19 22 24 25 22 19 18 18 19 19 20 20 20 20 20 19 17 15 13 10 9 7 6 6 7 6 4 2 2 4 5 6 8 10 12 14 15 15 14 15 16 16 17 17 17 18 19 20 20 19 16 14 14 15 14 14 14 14 14 14 14 14 14
15 15 15 16 15 15 14 14 13 13 13 13 14 14 14 13 14 14 16 18 20 22 23 24 23 22 20 17 16 17 18 18 18 19 20 20 20 18 16 14 12 10 8 7 6 6 7 5 2 1 2 4 5 6 7 9 11 13 14 15 15 15 16 17 17 16 17 18 19 20 20 20 17 15 15 15 14 13 13 14 14 13 13 13 13
16 16 16 16 15 15 15 15 16 17 17 16 16 15 15 15 16 18 20 22 24 25 25 24 22 20 18 16 17 18 18 18 18 20 21 20 19 17 15 12 11 9 8 7 6 6 6 4 2 1 3 5 5 6 7 9 10 11 13 15 16 16 16 17 17 16 16 18 19 19 19 19 17 14 14 14 14 14 14 14 14 14 13 12 12
16 15 15 15 15 15 16 18 19 20 21 21 21 19 18 18 19 21 23 25 26 25 24 23 21 18 16 16 17 18 18 19 20 21 21 19 17 15 13 11 10 8 7 6 6 6 4 2 1 2 3 5 5 6 8 10 11 11 12 14 15 15 16 17 17 16 15 17 18 18 18 17 15 13 13 14 14 14 14 14 14 14 13 12 11
13 14 15 16 17 17 18 19 19 19 21 23 23 22 24 25 24 24 25 24 23 22 22 20 19 17 17 17 18 19 20 22 22 21 19 17 15 13 12 10 8 7 6 5 5 4 3 2 1 2 4 5 6 7 8 11 12 12 12 12 14 15 16 17 17 15 14 16 17 18 17 16 13 12 12 13 13 13 14 14 13 13 13 12 12
14 13 13 14 16 16 16 17 17 17 19 20 20 20 22 24 24 24 23 22 20 19 19 18 18 18 19 21 22 22 22 21 20 18 17 15 13 12 11 9 7 6 6 5 4 4 3 1 1 3 4 5 6 8 9 11 13 13 12 12 13 14 16 16 16 15 14 15 16 17 17 15 13 11 11 12 13 13 13 14 13 13 12 12 12
16 15 13 13 12 12 12 13 13 13 14 15 16 17 18 18 18 18 18 17 16 15 15 16 18 20 21 21 21 21 19 18 17 16 14 13 12 10 9 8 7 6 6 5 4 3 3 1 2 3 4 6 7 9 11 12 12 12 12 11 11 13 15 15 15 14 13 13 15 16 16 17 16 15 13 12 13 13 13 14 14 13 12 12 12
Wind_Direction
220 219 217 211 209 210 212 208 205 202 196 193 188 184 191 193 176 157 146 149 156 156 163 172 178 181 172 167 160 142 127 91 67 50 42 36 36 45 51 61 89 109 117 120 115 111 114 108 100 100 105 110 113 113 110 103 93 89 87 84 86 91 94 101 112 119 109 88 85 79 73 71 64 62 64 60 57 55 49 43 39 35 33 28 12
219 219 216 210 206 209 212 208 205 202 198 197 195 194 202 206 192 168 158 163 170 167 164 174 187 197 194 180 175 184 191 191 179 75 18 357 353 351 350 346 297 266 203 174 158 134 125 123 108 103 114 121 122 121 115 111 105 98 94 93 93 93 95 100 109 119 122 107 95 82 71 70 64 56 55 54 53 52 48 42 38 34 31 31 21
226 224 218 209 205 205 208 207 204 203 200 199 198 202 213 219 212 190 176 179 189 188 178 179 198 215 220 223 246 264 263 265 271 276 283 302 308 306 308 303 289 279 262 233 218 205 183 173 151 123 125 136 139 137 127 119 112 105 101 97 97 96 98 106 112 120 130 124 110 101 75 67 62 52 46 43 41 41 39 35 33 29 24 24 21
237 240 226 209 202 200 200 201 202 202 202 203 204 208 217 225 223 210 197 195 202 207 202 200 217 237 242 242 241 241 251 268 276 284 294 296 295 295 296 291 284 278 270 258 244 235 222 212 211 191 169 170 166 158 150 139 123 113 109 102 99 98 97 103 111 122 136 133 116 105 84 68 59 46 38 31 26 26 25 21 20 19 15 14 13
251 258 243 215 206 206 206 204 204 204 208 212 214 217 221 224 224 220 215 210 209 214 217 218 235 254 256 255 253 247 249 261 274 291 301 294 290 295 293 284 276 274 275 274 266 255 240 227 226 218 204 198 192 185 177 163 145 130 123 115 109 103 98 100 105 113 124 125 117 97 76 70 55 39 33 28 20 15 12 10 9 7 5 6 6
256 261 262 245 229 226 225 222 220 220 224 229 231 229 226 222 221 223 226 224 218 217 219 218 227 246 253 253 254 258 262 268 282 295 296 290 286 281 278 276 273 270 271 272 270 265 255 242 237 233 224 217 210 205 199 189 177 157 142 133 125 117 110 107 106 107 107 107 110 98 74 63 51 33 24 21 21 16 8 3 360 359 358 359 359
258 260 264 263 255 247 242 235 231 232 240 245 241 234 227 221 220 224 228 228 222 221 223 221 220 231 240 242 246 253 258 269 284 288 287 289 283 267 265 271 276 275 270 268 267 264 258 250 246 244 241 236 232 227 218 208 198 184 165 142 131 128 123 117 113 111 109 106 101 93 80 54 42 28 15 16 19 15 9 1 351 350 351 352 352
259 261 261 264 263 260 254 245 237 237 244 246 238 229 223 220 219 222 224 225 224 226 230 230 226 226 228 233 243 250 260 276 283 280 280 289 286 274 268 267 270 274 272 268 266 262 258 255 251 248 249 249 249 246 237 227 215 199 181 151 133 133 130 124 121 118 115 117 105 86 95 61 35 23 13 17 15 4 2 355 343 339 341 343 344
260 257 255 259 264 266 259 246 238 237 242 243 234 225 221 218 216 219 223 227 230 231 232 231 226 224 229 240 251 257 265 276 278 274 277 285 284 279 274 268 267 271 272 270 269 265 261 260 256 249 248 252 250 244 239 236 224 213 202 175 156 145 138 131 124 123 120 108 93 61 50 46 29 16 9 14 8 353 350 346 339 333 333 334 331
260 256 251 251 252 253 253 248 241 237 235 234 227 218 216 214 214 218 221 225 230 231 232 230 225 229 242 251 256 257 259 263 266 268 270 270 274 278 276 272 270 269 269 270 270 269 267 266 263 256 252 254 248 239 238 234 220 217 221 205 187 169 150 137 112 105 57 28 47 18 359 7 21 11 358 359 355 344 341 339 334 332 332 333 330
262 265 262 260 257 254 254 254 249 239 231 226 220 214 212 212 212 216 216 215 221 227 231 232 230 236 246 251 251 249 248 253 258 260 260 259 267 272 269 267 266 263 265 267 270 275 276 278 278 268 261 260 251 238 234 231 220 216 214 202 197 191 170 144 92 59 343 3 32 2 348 343 344 348 347 346 342 335 334 330 328 333 334 332 329
275 281 278 274 277 277 278 280 270 252 236 226 219 214 213 213 212 213 212 210 215 221 225 226 226 232 238 239 238 238 242 250 252 247 245 245 250 256 259 262 263 262 265 269 273 278 282 286 288 282 274 268 259 242 227 219 215 211 207 203 198 193 190 182 31 356 321 319 329 324 325 321 316 321 332 336 332 325 324 321 322 328 325 318 317
45 19 337 300 302 306 309 312 301 266 241 232 231 229 228 225 221 218 213 210 212 215 217 217 213 214 219 221 225 233 240 241 232 220 211 206 206 218 241 262 271 274 276 277 279 282 287 293 291 287 285 279 271 254 224 211 207 203 201 202 199 203 230 251 279 304 293 289 295 297 298 304 310 314 318 326 328 324 321 319 317 317 311 304 304
48 40 36 41 34 7 346 332 323 302 251 233 234 237 233 230 233 231 223 216 215 212 214 218 212 204 203 205 209 214 210 201 194 189 185 180 177 177 194 256 282 284 283 283 286 288 290 291 288 288 290 287 283 262 222 207 203 198 197 202 207 218 237 245 256 273 273 274 278 277 284 293 302 308 313 321 326 321 314 313 312 307 300 296 296
36 28 29 43 52 43 19 344 316 298 267 233 229 232 227 224 231 230 217 207 202 188 182 186 182 177 179 181 184 182 176 174 175 178 180 180 179 184 195 222 263 281 286 288 291 291 289 287 282 280 283 285 284 251 216 206 202 198 199 206 212 218 228 240 255 262 258 264 269 266 275 290 299 303 309 318 321 318 314 312 310 303 298 297 295
27 17 9 16 28 24 49 63 27 324 291 260 244 238 230 217 201 180 163 159 154 146 141 139 134 137 142 147 155 163 169 172 175 180 187 188 189 192 199 208 223 266 292 303 311 309 303 293 280 266 266 271 262 226 211 205 201 200 202 206 208 216 231 246 257 259 257 263 269 270 277 290 299 304 311 316 316 317 315 310 307 302 299 301 299
18 17 9 4 5 349 317 179 162 237 254 264 241 218 200 182 166 157 151 146 142 141 139 133 127 125 125 129 137 153 170 179 184 190 194 197 200 201 202 209 219 228 293 2 18 23 19 354 303 261 251 264 242 210 202 199 198 200 204 207 209 216 232 249 254 253 259 268 274 279 286 297 307 311 314 315 313 316 311 301 303 306 301 300 299
359 359 353 339 351 13 0 288 231 212 211 212 195 181 175 171 168 167 163 155 150 151 148 138 128 118 110 108 114 133 169 191 197 200 202 202 206 208 206 208 212 200 156 99 80 70 65 70 78 89 103 169 199 190 190 193 199 204 209 210 212 219 231 244 250 257 272 280 284 293 301 306 309 308 308 307 307 308 300 291 296 300 294 293 296
351 344 328 304 293 304 326 319 267 219 214 207 190 180 179 179 177 175 170 161 156 156 154 145 130 116 102 91 89 101 132 174 195 204 204 200 203 208 206 200 197 185 159 134 118 103 93 93 94 93 102 134 167 175 181 189 199 206 215 217 217 222 230 237 246 266 281 283 287 297 301 302 302 302 301 301 300 299 291 284 286 289 287 289 294
343 337 324 305 290 286 288 290 284 265 237 217 205 197 192 189 185 180 177 173 169 167 168 162 149 131 109 86 75 74 76 89 154 201 199 190 193 201 199 191 186 176 158 143 131 125 122 116 111 114 124 141 161 171 176 183 189 193 202 207 211 218 226 238 255 271 282 285 289 295 296 297 300 299 297 295 295 292 284 276 275 277 281 285 289
331 328 323 313 302 295 290 285 280 275 264 247 230 214 203 201 199 193 187 184 180 178 178 174 167 157 137 104 74 55 47 46 47 142 189 177 181 190 189 187 186 174 158 146 136 131 131 127 124 126 131 137 146 156 163 171 180 191 197 201 214 227 235 257 280 292 298 297 299 301 300 299 300 298 294 292 289 284 280 278 275 271 274 279 284
321 320 318 314 310 304 299 294 285 274 263 255 245 234 225 218 209 201 197 194 189 186 184 182 178 172 163 146 107 67 50 53 60 94 177 168 173 178 177 181 188 177 161 152 145 141 140 137 134 134 135 136 137 139 151 172 191 212 220 225 247 268 284 295 303 308 308 305 307 307 304 304 304 303 300 298 295 290 287 286 282 276 274 274 276
311 310 308 308 307 305 302 301 296 283 266 254 245 239 236 232 222 213 209 204 197 192 190 189 189 186 184 189 196 200 182 137 134 142 152 160 170 173 172 178 189 185 171 161 156 152 150 146 141 140 138 132 127 130 151 204 224 235 262 298 310 323 331 324 320 319 315 312 311 309 308 309 309 307 306 305 302 298 295 293 291 287 284 280 276
302 301 300 300 300 301 300 299 298 293 279 263 250 241 238 236 229 223 219 215 209 205 202 198 194 193 197 203 206 206 198 175 161 157 154 163 175 177 179 183 187 188 181 169 162 158 154 150 146 146 146 140 134 143 149 132 98 67 32 350 340 344 344 334 330 326 321 317 315 313 312 312 312 311 311 309 305 302 300 299 296 292 289 286 283
297 295 296 295 295 296 297 295 295 293 287 277 262 247 237 231 224 220 218 215 211 206 202 200 197 196 200 206 209 210 206 195 183 175 172 175 178 179 183 186 187 189 183 169 159 155 152 148 146 148 147 143 135 126 110 93 66 31 359 347 350 355 350 342 337 331 324 320 318 315 314 315 314 311 308 306 303 301 301 299 296 293 291 289 287
295 292 290 290 290 292 293 293 292 290 288 285 274 257 244 235 228 221 215 210 207 202 197 197 199 200 203 208 209 209 209 206 200 191 182 179 177 175 177 179 180 180 173 161 153 150 148 147 147 144 138 133 127 114 93 65 32 3 350 354 6 8 356 346 339 330 324 321 319 316 314 314 311 307 305 303 300 300 301 299 297 298 298 297 295
287 287 286 286 286 285 286 288 288 288 286 285 281 270 254 242 232 224 214 206 203 200 197 198 201 202 204 207 205 204 205 206 203 197 187 179 174 171 172 171 169 167 162 156 152 152 150 147 146 142 133 122 107 90 73 53 33 19 11 12 14 4 352 345 338 327 320 319 319 315 311 309 307 305 305 303 300 299 300 299 298 299 300 300 298
278 278 278 279 279 278 278 279 280 281 281 279 281 277 260 243 230 222 214 207 204 203 201 201 203 203 204 203 199 198 201 206 207 201 192 182 175 170 169 169 167 166 163 158 154 153 148 144 139 133 123 111 97 82 73 65 50 39 30 20 8 356 350 347 341 329 317 316 317 314 308 307 306 305 305 303 300 300 301 298 296 296 297 298 295
275 272 269 268 268 269 270 269 267 268 271 272 272 274 264 246 232 225 220 213 208 207 206 205 206 206 205 204 199 197 202 211 213 207 197 190 185 178 174 170 168 167 166 162 158 153 148 142 136 129 122 114 103 93 84 69 55 43 29 15 5 357 349 343 336 327 319 315 314 312 308 306 306 306 305 303 302 302 301 297 295 294 295 293 289
277 272 265 261 259 259 262 262 259 259 262 263 262 263 263 252 237 230 229 224 216 211 209 208 209 207 206 205 204 204 211 218 212 201 192 188 186 182 177 173 169 166 163 161 159 153 146 140 134 128 125 119 106 96 86 65 49 35 18 7 1 353 346 339 331 325 320 314 312 312 308 305 307 309 306 304 303 302 299 296 293 292 291 289 287
274 272 268 262 257 255 256 257 257 256 257 258 255 250 248 248 243 235 233 231 228 225 219 213 211 211 209 207 204 204 208 209 202 193 185 180 178 176 174 173 170 167 164 160 154 149 143 138 135 131 127 120 105 94 83 61 39 22 8 358 352 347 341 335 330 327 320 311 311 314 312 309 310 311 308 305 302 300 298 295 292 291 289 288 289
267 268 269 268 263 257 253 252 252 252 253 254 253 243 232 230 236 238 233 228 228 232 231 222 217 216 214 213 212 207 199 193 192 189 182 176 175 174 172 171 169 168 168 160 147 141 142 142 140 137 131 120 109 99 85 58 31 14 359 349 346 342 335 333 335 334 326 316 316 319 317 314 313 310 306 302 298 297 297 295 294 293 291 289 289
260 260 262 266 267 261 253 248 246 245 243 243 245 242 230 218 214 219 225 219 213 217 224 226 226 226 223 220 220 214 203 192 186 184 180 174 172 170 168 167 165 163 163 155 141 138 144 145 141 140 136 127 123 111 85 51 21 3 349 341 339 335 331 332 335 334 327 322 322 321 318 317 316 309 303 299 297 297 297 296 296 295 294 293 292
260 256 254 256 259 261 257 250 244 241 238 234 234 235 234 228 218 211 211 207 202 208 216 218 217 218 217 212 207 208 205 194 184 181 177 171 168 167 163 160 159 158 156 149 140 140 146 146 143 143 139 130 125 108 80 40 3 350 342 337 335 331 329 330 331 329 328 328 327 324 321 320 316 307 300 298 298 298 299 300 300 300 299 296 293
265 258 254 252 251 253 254 252 245 239 235 232 228 228 232 234 229 220 214 209 204 208 213 211 205 203 202 199 196 198 196 186 179 179 176 170 168 166 159 154 154 157 156 149 144 146 151 151 147 143 136 131 125 105 72 15 349 343 338 334 331 330 331 330 328 330 335 334 329 325 323 319 312 304 299 298 299 300 302 303 304 301 298 295 292
271 261 253 249 247 243 243 246 244 239 234 229 225 225 229 233 229 220 215 213 210 210 209 203 195 192 192 192 189 186 183 179 177 179 179 174 169 165 158 152 153 157 155 150 149 151 153 151 145 138 133 131 124 100 44 354 342 336 333 332 332 331 332 331 331 337 341 337 327 322 320 316 309 305 303 302 303 304 305 305 303 299 295 292 291
284 269 253 246 242 236 234 237 238 236 231 225 222 223 224 224 221 215 208 203 201 201 197 190 184 182 182 182 179 176 176 175 174 173 173 171 168 167 164 160 157 157 156 153 155 156 153 147 141 134 132 132 120 81 2 343 336 328 330 335 337 337 340 344 348 349 345 336 326 322 318 313 309 308 308 307 308 309 310 307 303 299 296 295 293
302 286 263 247 238 232 229 229 230 230 226 220 217 218 217 214 211 208 202 198 197 195 189 181 175 170 168 170 173 172 169 165 163 162 163 165 168 170 168 163 159 159 158 157 158 156 150 146 140 132 130 131 110 32 345 337 331 328 334 340 340 340 345 350 351 349 343 334 327 326 322 316 314 314 312 310 309 311 311 308 304 301 299 298 297
324 313 284 251 233 225 225 224 222 222 222 215 209 208 208 206 201 195 193 192 192 190 185 179 176 176 173 169 165 162 159 156 155 156 159 165 170 170 166 162 161 160 158 156 157 154 148 145 140 134 132 127 82 358 336 333 331 335 342 346 342 340 347 351 348 344 339 331 328 329 325 321 320 318 314 311 310 310 309 307 305 302 299 298 297
345 345 327 255 225 221 224 223 216 212 211 207 200 196 198 200 198 193 193 190 185 182 179 172 171 176 177 173 169 164 159 156 157 158 160 165 169 169 166 165 164 160 158 157 156 150 144 141 138 136 135 123 15 340 338 340 340 341 346 348 345 345 351 353 349 344 337 329 329 331 328 324 321 317 314 314 315 314 310 307 306 303 300 297 297
356 2 2 272 221 220 223 221 214 203 197 196 191 186 189 198 200 195 191 181 168 160 158 156 160 170 172 170 173 173 163 156 156 157 159 162 166 170 170 167 162 158 158 158 154 147 143 141 140 139 138 121 349 344 345 347 349 350 350 350 349 350 352 351 347 343 339 334 333 333 330 326 322 318 316 318 320 318 313 309 308 307 304 302 302
15 22 29 30 230 226 220 214 209 200 193 191 187 184 190 198 197 188 176 162 151 144 140 142 154 167 168 164 165 166 158 151 151 155 160 165 170 171 167 161 158 158 159 158 154 150 145 143 142 140 140 75 356 353 351 352 355 357 354 352 352 351 349 347 345 343 341 339 338 337 335 331 326 320 318 320 322 319 315 313 313 312 311 310 309
34 43 52 58 61 86 153 173 176 173 174 177 177 180 185 186 179 170 160 151 147 144 138 137 146 153 155 155 156 158 156 154 155 161 167 169 167 161 156 156 160 162 162 160 155 149 144 142 142 142 134 16 2 359 357 359 1 360 357 355 354 351 348 347 345 344 343 343 342 341 338 334 328 323 322 325 325 322 319 318 319 319 318 317 316
41 48 59 64 65 69 86 105 114 121 135 149 156 161 164 156 144 140 139 137 137 137 136 140 145 147 147 149 153 156 159 160 162 164 165 161 157 155 158 161 162 162 159 154 147 142 143 145 145 136 62 6 0 360 2 6 5 2 359 359 357 353 349 349 348 347 346 345 344 343 340 335 330 327 327 328 328 327 325 324 324 324 324 324 322
43 48 57 64 65 67 75 87 98 107 115 120 123 127 130 127 124 125 127 126 126 128 131 137 141 142 141 143 147 153 159 162 160 159 157 156 156 159 161 160 158 157 153 143 135 141 149 151 144 113 28 2 357 1 6 6 5 3 2 2 1 357 355 352 350 349 349 347 345 344 342 338 334 331 331 331 329 327 326 326 324 324 326 329 329
53 55 59 64 68 71 74 78 84 91 96 100 104 110 115 116 118 121 123 123 125 127 128 131 134 135 136 141 149 157 161 161 158 156 156 157 159 161 159 157 157 154 145 134 134 145 152 149 136 84 18 2 1 7 7 2 360 1 2 3 2 1 359 356 353 352 352 351 348 346 345 342 337 334 334 333 331 329 328 329 327 325 326 331 334
59 59 61 64 69 73 76 78 81 85 89 92 95 101 107 112 116 120 122 125 127 127 128 130 132 134 140 150 160 165 166 165 161 159 158 159 159 157 155 156 157 151 139 134 139 146 150 148 132 59 16 9 12 14 8 359 353 354 358 2 2 0 360 359 357 354 355 356 353 350 349 347 341 335 335 336 335 335 334 333 332 330 330 332 335
60 62 65 67 70 74 79 82 84 85 89 92 93 96 103 109 113 116 121 125 127 129 131 135 138 142 150 158 163 165 164 160 156 155 154 155 154 153 154 159 158 149 140 140 144 147 155 159 119 28 13 12 14 13 7 359 352 349 353 359 0 359 359 1 0 358 358 359 357 357 358 354 344 336 336 337 338 338 338 336 336 335 334 335 339
63 62 65 70 74 78 83 86 87 88 92 95 95 97 104 109 113 116 121 125 128 130 134 137 141 145 150 152 151 151 150 149 148 149 150 150 151 154 159 163 161 154 151 153 153 159 172 178 28 8 5 6 5 2 359 355 351 348 349 353 356 358 0 2 2 1 1 1 1 4 5 358 344 336 339 342 341 342 342 341 340 339 338 339 343
73 69 68 72 76 77 81 84 86 88 93 97 98 100 105 109 113 118 121 124 126 128 131 135 138 141 143 143 142 143 143 143 143 145 147 149 152 157 163 165 165 165 167 169 170 176 186 207 341 354 357 355 352 351 351 350 347 346 345 346 353 359 1 2 4 5 4 3 6 10 11 5 355 348 347 347 347 347 347 347 346 344 343 345 347
79 77 73 70 69 69 70 74 76 77 83 90 95 98 102 106 110 114 117 119 120 122 124 130 136 139 139 140 141 141 141 141 141 142 145 149 153 157 163 168 171 173 175 180 184 188 197 252 329 345 348 344 342 345 346 344 343 343 342 342 350 359 1 2 6 10 9 7 10 16 18 16 12 8 2 357 355 354 353 353 353 351 349 350 352